Regional Weather Roundup
Issued by NWS

Home | Current Version | Previous Version | Graphics & Text | Print | Product List | Glossary On
Versions: 1 2 3 4 5 6 7 8 9 10 11 12 13 14 15 16 17 18 19 20 21 22 23 24 25 26 27 28 29 30 31 32 33 34 35 36 37 38 39 40 41 42 43 44 45 46 47 48 49 50
611
ASUS43 KFSD 191310
RWRSD

WEATHER ROUNDUP FOR SOUTH DAKOTA
NATIONAL WEATHER SERVICE SIOUX FALLS SD
700 AM CST THU JAN 19 2017

NOTE: "FAIR" INDICATES FEW OR NO CLOUDS BELOW 12,000 FEET WITH NO
SIGNIFICANT WEATHER AND/OR OBSTRUCTIONS TO VISIBILITY.


SDZ001>005-009-010-012>017-191400-
NORTHWEST AND NORTH CENTRAL SOUTH DAKOTA

CITY           SKY/WX    TMP DP  RH WIND       PRES   REMARKS
BUFFALO          N/A     23  16  74 W6        29.44S WCI  16
FAITH            N/A     19  16  88 NW5       29.50F WCI  12
MOBRIDGE       CLOUDY    11   7  84 SE5       29.51F WCI   3
$$

SDZ012>016-024>037-041>051-057-063-072>074-191400-
SOUTHWEST AND SOUTH CENTRAL SOUTH DAKOTA

CITY           SKY/WX    TMP DP  RH WIND       PRES   REMARKS
RAPID CTY ARPT CLOUDY    26  17  68 NW6       29.51F WCI  19
PIERRE         PTCLDY     9   6  88 CALM      29.55S
CUSTER         CLOUDY    29  11  47 W5        29.55S WCI  24
ELLSWORTH AFB  CLOUDY    25  18  74 CALM      29.50F
PHILIP         CLOUDY     9   7  92 CALM      29.54F
PINE RIDGE     CLOUDY    28  18  66 SW7       29.56S WCI  21
SPEARFISH      FAIR      32  19  59 S9        29.53S WCI  24
WINNER         FAIR      35  28  75 S15       29.57F WCI  25
$$

SDZ004>011-016>023-039-040-191400-
NORTHEAST SOUTH DAKOTA

CITY           SKY/WX    TMP DP  RH WIND       PRES   REMARKS
ABERDEEN       FOG       17  13  84 S5        29.61F VSB 1/4 WCI  10
WATERTOWN      CLOUDY    29  28  96 S12       29.66R WCI  19
BROOKINGS      CLEAR     32  30  92 S12       29.68F WCI  23
SISSETON         N/A     36  33  89 S12       29.64F
$$

SDZ017-020-022-023-036>040-048>070-191400-
SOUTHEAST SOUTH DAKOTA

CITY           SKY/WX    TMP DP  RH WIND       PRES   REMARKS
SIOUX FALLS    CLEAR     36  33  89 S10       29.73F
HURON          CLOUDY    33  32  96 SE13      29.63F WCI  24
CHAMBERLAIN    CLOUDY    36  33  91 CALM      29.59S
MITCHELL       CLEAR     32  32 100 SE7       29.68R WCI  26
YANKTON        CLEAR     34  28  80 E8        29.71F WCI  27
$$

ABBREVIATIONS USED IN REMARKS
   TC - TEMPERATURE IN CELSIUS
  WCI - WIND CHILL INDEX
   HX - HEAT INDEX
  VSB - VISIBILITY





USA.gov is the U.S. government's official web portal to all federal, state and local government web resources and services.